Regional Weather Roundup
Issued by NWS

Home | Current Version | Previous Version | Text Only | Print | Product List | Glossary On
Versions: 1 2 3 4 5 6 7 8 9 10 11 12 13 14 15 16 17 18 19 20 21 22 23 24 25 26 27 28 29 30 31 32 33 34 35 36 37 38 39 40 41 42 43 44 45 46 47 48 49 50
000
ASUS44 KMEG 181410
RWRTN
TENNESSEE HOURLY STATE WEATHER ROUNDUP
NATIONAL WEATHER SERVICE MEMPHIS TN
900 AM CDT THU SEP 18 2014

TNZ002-004-019-021-049-052-054-088>092-181500-
WEST TENNESSEE

CITY           SKY/WX    TMP DP  RH WIND       PRES   REMARKS
MEMPHIS INTL   CLOUDY    70  63  78 E7        29.98R
NWS MEMPHIS      N/A     67 N/A N/A MISG        N/A
JACKSON        CLOUDY    66  62  87 E3        30.00R
DYERSBURG      CLOUDY    64  54  68 E3        30.01R
UNION CITY     CLOUDY    64  59  82 NE5       30.01R
PARIS          CLOUDY    63  55  77 E5        30.02R
HUNTINGDON     CLOUDY    63  58  83 E6        30.01R
LEXINGTON      PTSUNNY   64  61  88 CALM      30.00R
SAVANNAH       CLOUDY    64  64 100 CALM      30.00R
$$

TNZ008-025-027-028-033-062-065-066-181500-
NORTH MIDDLE TENNESSEE

CITY           SKY/WX    TMP DP  RH WIND       PRES   REMARKS
NASHVILLE      PTSUNNY   67  57  70 E6        30.02R
DICKSON        MOSUNNY   63  57  82 CALM      30.01R
PORTLAND       PTSUNNY   63  57  82 CALM      30.02R
CLARKSVILLE    PTSUNNY   64  57  78 CALM      30.02R HAZE
LEBANON        MOSUNNY   63  57  80 CALM      30.01R
SMYRNA         MOSUNNY   67  59  75 NE3       30.03R
MURFREESBORO   MOSUNNY   64  58  81 E5        30.01R
COOKEVILLE     SUNNY     64  57  77 CALM      30.03R
LIVINGSTON     SUNNY     62  56  81 E3        30.03R
GALLATIN       MOSUNNY   63  61  93 CALM      30.03R
CROSSVILLE     CLOUDY    65  54  67 E5        30.06R
$$

TNZ061-075-076-078-094-096-097-181500-
SOUTH MIDDLE TENNESSEE

CITY           SKY/WX    TMP DP  RH WIND       PRES   REMARKS
LEWISBURG      PTSUNNY   65  59  81 E3        30.01S
FAYETTEVILLE   SUNNY     64  57  77 E6        30.01R
TULLAHOMA      SUNNY     64  55  72 E5        30.02S
WINCHESTER     SUNNY     66  57  72 SE6       30.02S
MCMINNVILLE    PTSUNNY   64  64 100 CALM      30.03R
COLUMBIA       PTSUNNY   64  64 100 E3        29.99S
SHELBYVILLE    MOSUNNY   66  61  82 E5        30.02S
$$

TNZ017-018-042-046-047-181500-
NORTHEAST TENNESSEE

CITY           SKY/WX    TMP DP  RH WIND       PRES   REMARKS
TRI CITIES     PTSUNNY   64  57  78 CALM      30.06R
ELIZABETHTON   MOSUNNY   63  57  82 CALM      30.06R
$$

TNZ012-013-036-069-073-074-181500-
CENTRAL EAST TENNESSEE

CITY           SKY/WX    TMP DP  RH WIND       PRES   REMARKS
KNOXVILLE      PTSUNNY   69  57  65 NE7       30.02R
OAK RIDGE      MOSUNNY   68  58  70 E6        30.04R
GATLINBURG     SUNNY     66  57  72 CALM      30.02S
MORRISTOWN     SUNNY     66  59  77 NE3       30.05R
$$

TNZ083-085-099-181500-
SOUTHEAST TENNESSEE

CITY           SKY/WX    TMP DP  RH WIND       PRES   REMARKS
CHATTANOOGA    PTSUNNY   69  59  70 N5        30.02R
$$

SKY/WX REPORTED AS FAIR MEANS FEW OR NO CLOUDS BELOW
12 THOUSAND FEET.



USA.gov is the U.S. government's official web portal to all federal, state and local government web resources and services.